OK1JIL-13 Weather Reports


time (UTC)temp
F
wind
direction
speed
knots
gust
knots
rain 1hr
in
rain 24hr
in
rain mn
in
humidity
%
barometer
mb
20260905195315 52 0.0 0.0 0.00 0.00 0.00 77 1021.4
20260905194314 51 0.0 0.0 0.00 0.00 0.00 75 1021.0
20260905193319 52 0.0 0.0 0.00 0.00 0.00 75 1021.2
20260905192315 52 0.0 0.0 0.00 0.00 0.00 77 1021.1
20260905191315 53 0.0 0.0 0.00 0.00 0.00 72 1021.2
20260905190314 53 0.0 0.0 0.00 0.00 0.00 69 1021.1
20260905185314 56 0.0 0.0 0.00 0.00 0.00 60 1021.2
20260905184315 56 0.0 0.0 0.00 0.00 0.00 58 1020.8
20260905183315 55 0.0 0.0 0.00 0.00 0.00 58 1020.7
20260905182315 56 0.0 0.0 0.00 0.00 0.00 56 1020.6
20260905181315 55 0.0 0.0 0.00 0.00 0.00 58 1020.5
20260905180314 55 0.0 0.0 0.00 0.00 0.00 57 1020.3
20260905175314 56 0.0 0.0 0.00 0.00 0.00 58 1020.3
20260905174314 55 0.0 0.0 0.00 0.00 0.00 58 1020.1
20260905173314 56 0.0 0.0 0.00 0.00 0.00 55 1020.1
20260905172314 56 0.0 0.0 0.00 0.00 0.00 57 1020.1
20260905171314 56 0.0 0.0 0.00 0.00 0.00 59 1020.1
20260905170315 57 0.0 0.0 0.00 0.00 0.00 54 1019.9
20260905165314 57 0.0 0.0 0.00 0.00 0.00 54 1019.7
20260905164314 57 0.0 0.0 0.00 0.00 0.00 53 1019.6
20260905163314 58 0.0 0.0 0.00 0.00 0.00 51 1019.6
20260905162315 58 0.0 0.0 0.00 0.00 0.00 52 1019.6
20260905161315 58 0.0 0.0 0.00 0.00 0.00 51 1019.3
20260905160314 58 0.0 0.0 0.00 0.00 0.00 51 1019.3
20260905155314 58 0.0 0.0 0.00 0.00 0.00 50 1019.3
20260905154314 58 0.0 0.0 0.00 0.00 0.00 49 1019.1
20260905153314 58 0.0 0.0 0.00 0.00 0.00 49 1019.1
20260905152315 58 0.0 0.0 0.00 0.00 0.00 51 1019.1
20260905151314 58 0.0 0.0 0.00 0.00 0.00 52 1019.1
20260905150314 59 0.0 0.0 0.00 0.00 0.00 52 1019.1
20260905145314 60 0.0 0.0 0.00 0.00 0.00 51 1019.1
20260905144314 59 0.0 0.0 0.00 0.00 0.00 56 1019.2
20260905143315 60 0.0 0.0 0.00 0.00 0.00 51 1019.2
20260905142314 60 0.0 0.0 0.00 0.00 0.00 51 1019.3
20260905141314 60 0.0 0.0 0.00 0.00 0.00 51 1019.3
20260905140314 60 0.0 0.0 0.00 0.00 0.00 49 1019.1
20260905135315 60 0.0 0.0 0.00 0.00 0.00 51 1019.3
20260905134314 60 0.0 0.0 0.00 0.00 0.00 50 1019.1
20260905133314 59 0.0 0.0 0.00 0.00 0.00 52 1019.0
20260905132314 58 0.0 0.0 0.00 0.00 0.00 55 1019.0
20260905131314 59 0.0 0.0 0.00 0.00 0.00 53 1019.0
20260905130314 59 0.0 0.0 0.00 0.00 0.00 52 1018.9
20260905125314 59 0.0 0.0 0.00 0.00 0.00 59 1018.9
20260905124314 59 0.0 0.0 0.00 0.00 0.00 54 1019.0
20260905123315 59 0.0 0.0 0.00 0.00 0.00 56 1019.0
20260905122314 60 0.0 0.0 0.00 0.00 0.00 54 1019.1
20260905121315 60 0.0 0.0 0.00 0.00 0.00 55 1019.0
20260905120314 60 0.0 0.0 0.00 0.00 0.00 54 1019.1
20260905115314 61 0.0 0.0 0.00 0.00 0.00 57 1019.3
20260905114318 60 0.0 0.0 0.00 0.00 0.00 56 1019.3
20260905113314 60 0.0 0.0 0.00 0.00 0.00 60 1019.3
20260905112314 59 0.0 0.0 0.00 0.00 0.00 58 1019.3
20260905111314 59 0.0 0.0 0.00 0.00 0.00 61 1019.3
20260905110314 57 0.0 0.0 0.00 0.00 0.00 59 1019.2
20260905105315 57 0.0 0.0 0.00 0.00 0.00 64 1019.1
20260905104314 58 0.0 0.0 0.00 0.00 0.00 64 1019.2
20260905103314 56 0.0 0.0 0.00 0.00 0.00 61 1019.1
20260905102314 59 0.0 0.0 0.00 0.00 0.00 59 1019.0
20260905101314 59 0.0 0.0 0.00 0.00 0.00 65 1018.9
20260905100314 60 0.0 0.0 0.00 0.00 0.00 62 1018.8
20260905095314 58 0.0 0.0 0.00 0.00 0.00 65 1018.5
20260905094314 57 0.0 0.0 0.00 0.00 0.00 68 1018.6
20260905093316 57 0.0 0.0 0.00 0.00 0.00 71 1018.7
20260905092313 56 0.0 0.0 0.00 0.00 0.00 72 1018.8
20260905091313 57 0.0 0.0 0.00 0.00 0.00 73 1018.6
20260905090314 56 0.0 0.0 0.00 0.00 0.00 74 1018.6
20260905085313 55 0.0 0.0 0.00 0.00 0.00 77 1018.6
20260905084313 54 0.0 0.0 0.00 0.00 0.00 74 1018.4
20260905083313 55 0.0 0.0 0.00 0.00 0.00 77 1018.3
20260905082313 55 0.0 0.0 0.00 0.00 0.00 78 1018.2
20260905081313 55 0.0 0.0 0.00 0.00 0.00 79 1018.0
20260905080313 54 0.0 0.0 0.00 0.00 0.00 79 1018.1
20260905075313 53 0.0 0.0 0.00 0.00 0.00 80 1017.9
20260905074313 54 0.0 0.0 0.00 0.00 0.00 80 1017.9
20260905073313 54 0.0 0.0 0.00 0.00 0.00 79 1017.9
20260905072313 53 0.0 0.0 0.00 0.00 0.00 82 1017.7
20260905071313 53 0.0 0.0 0.00 0.00 0.00 80 1017.8
20260905070313 53 0.0 0.0 0.00 0.00 0.00 81 1017.7
20260905065313 53 0.0 0.0 0.00 0.00 0.00 81 1017.7
20260905064313 53 0.0 0.0 0.00 0.00 0.00 81 1017.5
20260905063313 52 0.0 0.0 0.00 0.00 0.00 81 1017.4
20260905062313 53 0.0 0.0 0.00 0.00 0.00 80 1017.4
20260905061313 52 0.0 0.0 0.00 0.00 0.00 81 1017.4
20260905060313 53 0.0 0.0 0.00 0.00 0.00 80 1017.3
20260905055313 53 0.0 0.0 0.00 0.00 0.00 81 1017.2
20260905054313 52 0.0 0.0 0.00 0.00 0.00 81 1017.0
20260905053313 52 0.0 0.0 0.00 0.00 0.00 82 1016.7
20260905052313 53 0.0 0.0 0.00 0.00 0.00 81 1016.7
20260905051313 53 0.0 0.0 0.00 0.00 0.00 82 1016.5
20260905050313 53 0.0 0.0 0.00 0.00 0.00 84 1016.4
20260905045313 53 0.0 0.0 0.00 0.00 0.00 82 1016.0
20260905044313 53 0.0 0.0 0.00 0.00 0.00 81 1016.1
20260905043313 53 0.0 0.0 0.00 0.00 0.00 81 1016.1
20260905042312 54 0.0 0.0 0.00 0.00 0.00 81 1016.0
20260905041313 53 0.0 0.0 0.00 0.00 0.00 82 1016.0
20260905040312 53 0.0 0.0 0.00 0.00 0.00 82 1015.9
20260905035312 53 0.0 0.0 0.00 0.00 0.00 82 1015.9
20260905034313 53 0.0 0.0 0.00 0.00 0.00 83 1016.0
20260905033312 54 0.0 0.0 0.00 0.00 0.00 81 1015.6
20260905032312 53 0.0 0.0 0.00 0.00 0.00 80 1015.5
20260905031312 54 0.0 0.0 0.00 0.00 0.00 80 1015.7
20260905030312 53 0.0 0.0 0.00 0.00 0.00 82 1015.7
20260905025312 54 0.0 0.0 0.00 0.00 0.00 80 1015.3
20260905024313 54 0.0 0.0 0.00 0.00 0.00 80 1015.5
20260905023312 54 0.0 0.0 0.00 0.00 0.00 80 1015.5
20260905022312 53 0.0 0.0 0.00 0.00 0.00 81 1015.2
20260905021313 53 0.0 0.0 0.00 0.00 0.00 80 1014.8
20260905020313 53 0.0 0.0 0.00 0.00 0.00 79 1014.7
20260905015312 52 0.0 0.0 0.00 0.00 0.00 80 1014.7
20260905014312 53 0.0 0.0 0.00 0.00 0.00 79 1014.1
20260905013312 53 0.0 0.0 0.00 0.00 0.00 79 1014.3
20260905012312 53 0.0 0.0 0.00 0.00 0.00 80 1014.2
20260905011312 52 0.0 0.0 0.00 0.00 0.00 80 1014.5
20260905010312 52 0.0 0.0 0.00 0.00 0.00 81 1014.7
20260905005312 53 0.0 0.0 0.00 0.00 0.00 79 1014.6
20260905004313 53 0.0 0.0 0.00 0.00 0.00 79 1014.7
20260905003313 54 0.0 0.0 0.00 0.00 0.00 81 1014.4
20260905002312 54 0.0 0.0 0.00 0.00 0.00 81 1014.4
20260905001312 54 0.0 0.0 0.00 0.00 0.00 82 1014.2
20260905000312 55 0.0 0.0 0.00 0.00 0.00 81 1014.5
20260904235316 55 0.0 0.0 0.00 0.00 0.00 80 1014.3
20260904234312 55 0.0 0.0 0.00 0.00 0.00 81 1014.6
20260904233312 56 0.0 0.0 0.00 0.00 0.00 80 1014.3
20260904232312 56 0.0 0.0 0.00 0.00 0.00 81 1014.2
20260904231312 56 0.0 0.0 0.00 0.00 0.00 82 1013.8
20260904230312 56 0.0 0.0 0.00 0.00 0.00 81 1013.8
20260904225312 56 0.0 0.0 0.00 0.00 0.00 80 1013.3
20260904224312 57 0.0 0.0 0.00 0.00 0.00 80 1013.5
20260904223312 57 0.0 0.0 0.00 0.00 0.00 79 1013.3
20260904222312 57 0.0 0.0 0.00 0.00 0.00 76 1013.4
20260904221312 58 0.0 0.0 0.00 0.00 0.00 73 1013.6
20260904220312 58 0.0 0.0 0.00 0.00 0.00 74 1014.0
20260904215312 58 0.0 0.0 0.00 0.00 0.00 75 1013.4
20260904214312 59 0.0 0.0 0.00 0.00 0.00 73 1013.3
20260904213315 61 0.0 0.0 0.00 0.00 0.00 70 1013.2
20260904212311 61 0.0 0.0 0.00 0.00 0.00 69 1012.7
20260904211311 62 0.0 0.0 0.00 0.00 0.00 66 1012.9
20260904210311 62 0.0 0.0 0.00 0.00 0.00 66 1012.8
20260904205311 62 0.0 0.0 0.00 0.00 0.00 66 1012.8
20260904204311 62 0.0 0.0 0.00 0.00 0.00 66 1012.7
20260904203311 62 0.0 0.0 0.00 0.00 0.00 67 1012.8
20260904202311 63 0.0 0.0 0.00 0.00 0.00 66 1013.0
20260904201311 62 0.0 0.0 0.00 0.00 0.00 66 1013.0
20260904200311 63 0.0 0.0 0.00 0.00 0.00 67 1013.0